Tracking 22458 objects as of 4-Mar-2021
HD Live streaming from Space Station
objects crossing your sky now

IUS DEB

Track IUS DEB now!
10-day predictions


NORAD ID: 43367
Int'l Code: 1999-040Q
Perigee: 687.1 km
Apogee: 9,605.6 km
Inclination: 28.2 °
Period: 205.0 minutes
Semi major axis: 11517 km
RCS: Unknown
Launch date: July 23, 1999
Source: United States (US)
Launch site: AIR FORCE EASTERN TEST RANGE (AFETR)

Note: This is SATELLITE DEBRIS
aabbcc
Your satellite tracking list
Your tracking list is empty




NASA's NSSDC Master Catalog

Two Line Element Set (TLE):
1 43367U 99040Q   21058.41688385 -.00001462  00000-0 -52558-2 0  9996
2 43367  28.2011 335.4347 3871799 223.3950  98.6949  7.02383008210689
Source of the keplerian elements: AFSPC